Location: eljas
(40.1958°N, 6.8661°W)
Time: 09:02:10
(UTC+02:00)

ISS - All Passes

Search period start: 30 April 2017 00:00
Search period end: 10 May 2017 00:00
Orbit: 401 x 409 km, 51.6° (Epoch: 01 May)

Date Brightness Start Highest point End Pass type
(mag) Time Alt. Az. Time Alt. Az. Time Alt. Az.
30 Apr - 08:16:06 10° SSW 08:18:55 27° SE 08:21:44 10° ENE daylight
30 Apr - 09:52:18 10° W 09:55:20 34° NNW 09:58:22 10° NE daylight
30 Apr - 11:31:02 10° NW 11:32:35 13° N 11:34:06 10° NNE daylight
30 Apr - 13:08:33 10° NNW 13:10:11 13° N 13:11:47 10° NE daylight
30 Apr - 14:44:18 10° NW 14:47:23 37° NNE 14:50:27 10° E daylight
30 Apr - 16:21:04 10° WNW 16:23:44 24° SW 16:26:24 10° S daylight
01 May - 07:25:14 10° SSE 07:27:03 14° SE 07:28:53 10° E daylight
01 May - 08:59:58 10° WSW 09:03:12 60° NW 09:06:27 10° NE daylight
01 May - 10:38:11 10° NW 10:40:13 15° NNW 10:42:15 10° NNE daylight
01 May - 12:16:35 10° NNW 12:17:47 12° N 12:19:00 10° NNE daylight
01 May - 13:52:26 10° NNW 13:55:10 24° NNE 13:57:55 10° E daylight
01 May - 15:28:39 10° WNW 15:31:49 46° SW 15:34:56 10° SSE daylight
02 May - 08:07:53 10° SW 08:11:08 71° SE 08:14:23 10° ENE daylight
02 May - 09:45:24 10° WNW 09:47:55 20° NNW 09:50:25 10° NNE daylight
02 May - 11:24:18 10° NNW 11:25:23 11° N 11:26:27 10° NNE daylight
02 May - 13:00:36 10° NNW 13:02:54 18° NNE 13:05:12 10° ENE daylight
02 May - 14:36:31 10° NW 14:39:47 86° NNE 14:43:02 10° SE daylight
03 May - 07:16:08 10° SSW 07:19:08 34° SE 07:22:09 10° ENE daylight
03 May - 08:52:44 10° W 08:55:39 29° NNW 08:58:33 10° NE daylight
03 May - 10:31:35 10° NNW 10:32:57 12° N 10:34:19 10° NNE daylight
03 May - 12:08:44 10° NNW 12:10:33 14° NNE 12:12:21 10° NE daylight
03 May - 13:44:30 10° NW 13:47:40 46° NNE 13:50:49 10° ESE daylight
03 May - 15:21:34 10° W 15:23:55 19° SW 15:26:16 10° S daylight
04 May - 06:24:53 10° S 06:27:12 18° SE 06:29:31 10° E visible
04 May - 08:00:16 10° WSW 08:03:27 47° NNW 08:06:38 10° NE daylight
04 May - 09:38:42 10° NW 09:40:33 14° NNW 09:42:24 10° NNE daylight
04 May - 11:16:48 10° NNW 11:18:08 12° N 11:19:28 10° NNE daylight
04 May - 12:52:34 10° NW 12:55:27 28° NNE 12:58:20 10° E daylight
04 May - 14:28:58 10° WNW 14:31:59 36° SW 14:34:59 10° SSE daylight
05 May - 07:08:03 10° SW 07:11:18 89° W 07:14:35 10° NE daylight
05 May - 08:45:50 10° WNW 08:48:10 18° NNW 08:50:32 10° NNE daylight
05 May - 10:24:36 10° NNW 10:25:42 11° N 10:26:46 10° NNE daylight
05 May - 12:00:41 10° NNW 12:03:10 20° NNE 12:05:38 10° ENE daylight
05 May - 13:36:42 10° NW 13:39:57 74° SW 13:43:11 10° SE daylight
06 May - 06:16:06 10° SSW 06:19:14 45° SE 06:22:23 10° ENE visible
06 May - 07:53:04 10° W 07:55:51 25° NNW 07:58:38 10° NNE daylight
06 May - 09:32:00 10° NNW 09:33:13 12° N 09:34:27 10° NNE daylight
06 May - 11:08:48 10° NNW 11:10:48 15° NNE 11:12:47 10° NE daylight
06 May - 12:44:37 10° NW 12:47:50 57° NE 12:51:02 10° ESE daylight
06 May - 14:22:05 10° W 14:23:59 15° SW 14:25:52 10° SSW daylight
07 May - 05:24:35 10° S 05:27:14 23° SE 05:29:54 10° E visible
07 May - 07:00:29 10° WSW 07:03:35 39° NNW 07:06:41 10° NE daylight
07 May - 08:39:06 10° NW 08:40:46 13° NNW 08:42:25 10° NNE daylight
07 May - 10:16:51 10° NNW 10:18:22 13° N 10:19:52 10° NE daylight
07 May - 11:52:36 10° NW 11:55:37 33° NNE 11:58:36 10° E daylight
07 May - 13:29:11 10° WNW 13:32:02 28° SW 13:34:52 10° SSE daylight
08 May - 04:33:59 10° SSE 04:35:18 12° SE 04:36:38 10° ESE visible
08 May - 06:08:07 10° WSW 06:11:23 71° NW 06:14:39 10° NE visible
08 May - 07:46:10 10° WNW 07:48:20 16° NNW 07:50:31 10° NNE daylight
08 May - 09:24:44 10° NNW 09:25:53 11° N 09:27:01 10° NNE daylight
08 May - 11:00:40 10° NNW 11:03:18 22° NNE 11:05:56 10° ENE daylight
08 May - 12:36:47 10° WNW 12:40:00 56° SW 12:43:11 10° SE daylight
09 May - 05:16:01 10° SW 05:19:15 58° SE 05:22:28 10° ENE visible
09 May - 06:53:19 10° WNW 06:55:57 22° NNW 06:58:35 10° NNE daylight
09 May - 08:32:14 10° NNW 08:33:23 11° N 08:34:31 10° NNE daylight
09 May - 10:08:44 10° NNW 10:10:55 16° NNE 10:13:06 10° ENE daylight
09 May - 11:44:36 10° NW 11:47:52 73° NE 11:51:06 10° ESE daylight
09 May - 13:22:46 10° WSW 13:23:55 11° SW 13:25:04 10° SSW daylight
